Weather History for Harare Kutsaga, Zimbabwe

Change the Weather History Date:

Thursday, March 21, 2013

  Actual Average Record
Temperature  
Mean Temperature 66 °F -  
Max Temperature 78 °F 78 °F 86 °F (2007)
Min Temperature 55 °F 55 °F 55 °F (2013)
Cooling Degree Days 2    
Growing Degree Days 16 (Base 50)    
Moisture  
Dew Point 56 °F    
Average Humidity 67    
Maximum Humidity 100    
Minimum Humidity 33    
Precipitation  
Precipitation 0.00 in 0.07 in - ()
Sea Level Pressure  
Sea Level Pressure 30.23 in    
Wind  
Wind Speed 7 mph ()    
Max Wind Speed 15 mph    
Max Gust Speed -    
Visibility 8.5 miles    
Events      
Averages and records for this station are not official NWS values.
T = Trace of Precipitation, MM = Missing Value Source: Averaged Metar Reports

Daily Weather History Graph

Daily Weather History Graph

Search for Another Location

Airport:

Trip Planner

Search our weather history database for the weather conditions in past years. The results will help you decide how hot, cold, wet, or windy it might be!

Date:

Astronomy

Mar. 21, 2013 Rise Set
Actual Time 5:59 AM CAT 6:05 PM CAT
Civil Twilight 5:37 AM CAT 6:27 PM CAT
Nautical Twilight 5:12 AM CAT 6:52 PM CAT
Astronomical Twilight 4:47 AM CAT 7:17 PM CAT
Moon 1:47 PM CAT (3/21) 12:32 AM CAT (3/21)
Length of Visible Light 12h 49m
Length of Day
12h 05m
Waxing Gibbous, 66% of the Moon is Illuminated
Mar 21
Waxing Gibbous
Mar 27
Full
Apr 3
Last Quarter
Apr 10
New
Apr 18
First Quarter

Hourly Weather History & Observations

Time (CAT) Temp. Dew Point Humidity Pressure Visibility Wind Dir Wind Speed Gust Speed Precip Events Conditions
12:00 AM 60.8 °F 59.0 °F 94% 30.24 in - East 6.9 mph - N/A   Clear
2:00 AM 57 °F 56 °F 94%  in 19 mi SE 5.8 mph - -   Clear
2:00 AM 59.0 °F 57.2 °F 94% 30.24 in - ESE 6.9 mph - N/A   Clear
5:00 AM 55.4 °F 55.4 °F 100% 30.24 in - ESE 6.9 mph - N/A   Clear
6:00 AM 57.2 °F 53.6 °F 88% 30.24 in 6.2 mi ESE 9.2 mph - N/A   Partly Cloudy
7:00 AM 60.8 °F 55.4 °F 82% 30.27 in 6.2 mi ESE 10.4 mph - N/A   Partly Cloudy
8:00 AM 65 °F 57 °F 68%  in 19 mi ESE 12.7 mph - -   Scattered Clouds
8:00 AM 64.4 °F 57.2 °F 77% 30.30 in 6.2 mi ESE 12.7 mph - N/A   Partly Cloudy
9:00 AM 68.0 °F 55.4 °F 64% 30.30 in 6.2 mi East 15.0 mph - N/A   Partly Cloudy
10:00 AM 71.6 °F 57.2 °F 60% 30.30 in 6.2 mi ESE 12.7 mph - N/A   Scattered Clouds
11:00 AM 71.6 °F 57.2 °F 60% 30.30 in 6.2 mi ESE 9.2 mph - N/A   Mostly Cloudy
12:00 PM 73.4 °F 59.0 °F 61% 30.27 in 6.2 mi East 9.2 mph - N/A   Mostly Cloudy
1:00 PM 73.4 °F 57.2 °F 57% 30.24 in 6.2 mi East 6.9 mph - N/A   Mostly Cloudy
2:00 PM 76 °F 55 °F 38%  in 19 mi SE 3.5 mph - -   Mostly Cloudy
2:00 PM 77.0 °F 55.4 °F 47% 30.21 in 6.2 mi SE 3.5 mph - N/A   Mostly Cloudy
3:00 PM 77.0 °F 55.4 °F 47% 30.18 in 6.2 mi SSE 5.8 mph - N/A   Mostly Cloudy
4:00 PM 78.8 °F 55.4 °F 44% 30.15 in 6.2 mi ESE 3.5 mph - N/A   Mostly Cloudy
5:00 PM 77.0 °F 57.2 °F 50% 30.18 in 6.2 mi ENE 5.8 mph - N/A   Mostly Cloudy
6:00 PM 71.6 °F 59.0 °F 64% 30.18 in 6.2 mi East 2.3 mph - N/A   Mostly Cloudy
7:00 PM 69.8 °F 39.2 °F 33% 30.18 in 6.2 mi SE 4.6 mph - N/A   Mostly Cloudy
8:00 PM 67 °F 56 °F 58%  in 19 mi SE 6.9 mph - -   Scattered Clouds
8:00 PM 68.0 °F 55.4 °F 64% 30.21 in 6.2 mi SE 6.9 mph - N/A   Partly Cloudy
9:00 PM 64.4 °F 55.4 °F 73% 30.21 in 6.2 mi East 6.9 mph - N/A   Partly Cloudy
10:00 PM 62.6 °F 55.4 °F 77% 30.21 in 6.2 mi East 6.9 mph - N/A   Partly Cloudy
11:00 PM 60.8 °F 55.4 °F 82% 30.21 in 6.2 mi East 5.8 mph - N/A   Partly Cloudy